TimePDT,TemperatureF,Dew PointF,Humidity,Sea Level PressureIn,VisibilityMPH,Wind Direction,Wind SpeedMPH,Gust SpeedMPH,PrecipitationIn,Events,Conditions,WindDirDegrees,DateUTC
12:56 AM,61.0,57.0,87,30.05,10.0,North,4.6,-,N/A,,Overcast,10,2013-07-27 07:56:00
1:56 AM,61.0,57.0,87,30.04,10.0,Calm,Calm,-,N/A,,Overcast,0,2013-07-27 08:56:00
2:56 AM,62.1,57.0,84,30.02,10.0,Calm,Calm,-,N/A,,Overcast,0,2013-07-27 09:56:00
3:56 AM,62.1,57.0,84,30.02,10.0,NW,3.5,-,N/A,,Overcast,310,2013-07-27 10:56:00
4:56 AM,62.1,57.0,84,30.02,10.0,Calm,Calm,-,N/A,,Overcast,0,2013-07-27 11:56:00
5:56 AM,61.0,57.0,87,30.02,10.0,North,3.5,-,N/A,,Overcast,360,2013-07-27 12:56:00
6:56 AM,61.0,57.0,87,30.03,9.0,NNE,4.6,-,N/A,,Overcast,20,2013-07-27 13:56:00
7:16 AM,62.6,57.2,82,30.02,8.0,North,4.6,-,N/A,,Overcast,10,2013-07-27 14:16:00
7:56 AM,62.1,55.9,80,30.03,9.0,North,4.6,-,N/A,,Overcast,10,2013-07-27 14:56:00
8:56 AM,64.0,55.9,75,30.03,9.0,NNE,4.6,-,N/A,,Overcast,30,2013-07-27 15:56:00
9:56 AM,66.0,57.0,73,30.01,9.0,Calm,Calm,-,N/A,,Scattered Clouds,0,2013-07-27 16:56:00
10:56 AM,69.1,57.0,65,30.00,9.0,NNW,5.8,-,N/A,,Clear,340,2013-07-27 17:56:00
11:56 AM,72.0,57.9,61,29.99,10.0,North,10.4,-,N/A,,Clear,350,2013-07-27 18:56:00
12:56 PM,72.0,57.9,61,29.98,10.0,NNW,15.0,-,N/A,,Clear,340,2013-07-27 19:56:00
1:56 PM,71.1,57.9,63,29.96,10.0,NNW,12.7,-,N/A,,Clear,330,2013-07-27 20:56:00
2:56 PM,72.0,57.0,59,29.95,10.0,NW,10.4,-,N/A,,Clear,320,2013-07-27 21:56:00
3:56 PM,72.0,57.0,59,29.92,10.0,NNW,9.2,-,N/A,,Clear,330,2013-07-27 22:56:00
4:56 PM,71.1,57.0,61,29.91,10.0,NNW,10.4,-,N/A,,Clear,330,2013-07-27 23:56:00
5:56 PM,70.0,57.9,65,29.89,10.0,NNW,10.4,-,N/A,,Clear,340,2013-07-28 00:56:00
6:56 PM,68.0,57.0,68,29.89,10.0,NNW,11.5,-,N/A,,Clear,340,2013-07-28 01:56:00
7:56 PM,66.0,57.9,75,29.90,10.0,NNW,10.4,-,N/A,,Clear,340,2013-07-28 02:56:00
8:56 PM,63.0,57.0,81,29.91,10.0,NNW,8.1,-,N/A,,Partly Cloudy,330,2013-07-28 03:56:00
9:56 PM,62.1,57.0,84,29.92,10.0,North,9.2,-,N/A,,Scattered Clouds,360,2013-07-28 04:56:00
10:20 PM,60.8,55.4,82,29.91,10.0,North,6.9,-,N/A,,Mostly Cloudy,10,2013-07-28 05:20:00
10:34 PM,60.8,55.4,82,29.91,10.0,North,8.1,-,N/A,,Scattered Clouds,360,2013-07-28 05:34:00
10:56 PM,61.0,55.9,83,29.92,10.0,North,5.8,-,N/A,,Clear,360,2013-07-28 05:56:00
11:29 PM,60.8,55.4,82,29.91,10.0,North,4.6,-,N/A,,Mostly Cloudy,10,2013-07-28 06:29:00
11:56 PM,61.0,55.9,83,29.91,10.0,NNE,4.6,-,N/A,,Overcast,20,2013-07-28 06:56:00